Temperature
12 11 11 11 11 11 11 11 12 12 12 12 11 11 11 11 11 11 11 11 11 11 11 11 10 10 10 10 10 10 10 10 10 10 9 9 9 9 9 9 9 9 9
11 11 11 11 11 11 11 11 11 11 11 11 11 11 11 11 11 11 11 11 10 10 10 10 10 10 10 10 10 9 9 9 9 9 9 9 9 9 9 9 8 9 9
11 11 11 11 11 11 11 10 10 11 11 11 11 10 10 10 10 10 10 10 10 10 10 10 10 10 9 9 9 9 9 9 9 9 9 9 9 9 8 8 8 8 8
10 10 10 10 10 10 10 10 10 10 10 10 10 10 10 10 10 10 10 10 10 10 10 9 9 9 9 9 9 9 9 8 8 8 8 8 8 8 8 8 8 8 8
10 10 10 10 10 10 10 10 10 10 10 10 10 10 10 10 9 9 9 9 9 9 9 9 9 9 9 8 8 8 8 8 8 8 8 8 8 7 7 7 7 7 7
9 9 9 9 9 9 9 9 9 9 9 9 9 9 9 9 9 9 9 9 9 9 9 9 9 8 8 8 8 8 8 7 7 7 7 7 7 7 7 7 7 7 7
9 9 9 9 9 9 9 9 9 9 9 9 9 8 8 8 8 8 8 8 9 8 8 8 8 8 8 8 8 8 8 7 7 7 7 7 7 6 6 6 6 7 7
8 8 8 8 8 8 8 8 8 8 8 8 8 8 7 7 8 8 8 8 8 8 8 8 8 8 7 7 7 7 7 7 7 7 6 6 6 6 6 6 6 6 6
8 8 8 8 8 8 8 8 8 8 8 8 8 8 7 7 7 7 7 7 7 7 7 7 7 7 7 7 7 7 7 7 7 6 6 6 6 6 6 6 6 6 6
8 8 8 7 7 7 8 7 7 7 8 8 7 7 7 7 7 6 6 6 6 7 7 6 6 6 6 6 6 6 6 6 6 6 6 6 6 5 5 5 5 5 6
7 7 7 7 7 7 7 7 7 7 7 7 7 7 7 7 7 6 6 6 6 6 6 6 6 6 6 6 6 6 6 6 6 5 5 5 5 5 5 5 5 5 5
7 7 7 7 7 7 7 7 7 7 7 7 7 7 6 6 6 6 6 6 5 6 5 5 5 5 5 5 5 5 5 5 5 5 5 5 5 5 5 4 4 4 5
7 7 6 6 6 6 6 6 6 6 6 6 6 6 6 6 6 6 6 5 5 5 5 5 5 5 5 5 5 5 5 5 5 5 4 4 4 4 4 4 4 4 4
6 6 6 6 6 6 6 6 6 6 6 6 6 6 6 6 6 5 5 5 4 4 4 4 4 4 4 4 4 4 4 4 4 4 4 4 4 4 3 3 3 3 3
6 6 6 6 6 6 6 5 5 5 5 6 5 5 5 5 5 5 5 4 4 3 3 4 4 4 4 4 4 4 4 4 4 4 4 4 3 3 3 3 3 3 3
6 6 5 5 5 5 5 5 5 5 5 5 5 5 5 5 5 5 4 4 4 3 3 3 3 3 3 3 3 3 3 3 3 3 3 3 3 3 3 2 2 2 2
5 5 5 5 5 5 5 5 5 5 5 5 4 4 4 4 4 4 4 3 3 3 3 3 3 3 3 3 3 3 3 3 3 3 3 2 2 2 2 2 2 2 2
5 5 5 5 5 5 5 5 5 4 4 4 4 4 4 4 4 3 3 3 3 3 3 3 3 2 2 2 2 2 2 2 2 2 2 2 2 2 1 2 1 1 1
4 4 4 4 4 4 4 4 4 4 4 3 3 3 3 3 3 3 3 3 2 2 2 2 2 2 2 2 1 1 1 1 2 2 1 1 1 1 1 1 1 1 1
4 4 4 4 4 4 4 3 3 3 3 3 3 3 3 3 2 2 2 2 2 2 1 1 1 1 1 1 1 1 1 1 1 1 1 1 1 1 1 1 1 1 0
3 3 3 3 3 3 3 3 3 3 3 3 2 2 2 2 2 2 2 1 1 1 1 1 1 1 1 0 0 0 0 0 0 1 1 1 0 1 0 0 0 0 -0
3 3 3 3 3 3 2 2 2 2 2 2 2 2 2 2 2 1 1 1 1 1 1 1 0 0 0 0 -0 -0 -0 -0 -0 -0 -0 -0 -0 -0 -0 -0 -0 -0 -1
2 2 2 2 2 2 2 2 2 2 2 2 2 1 1 1 1 1 1 1 1 0 0 0 0 0 -0 -0 -0 -0 -1 -1 -1 -1 -1 -1 -1 -1 -1 -1 -1 -1 -1
2 2 2 2 2 2 2 2 2 1 1 1 1 1 1 1 1 1 0 0 0 0 -0 -0 -0 -0 -0 -1 -1 -1 -1 -1 -1 -1 -1 -1 -1 -1 -1 -1 -1 -1 -1
1 1 1 1 1 1 1 1 1 1 1 1 1 1 0 0 0 0 -0 -0 -0 -0 -0 -1 -1 -1 -1 -1 -1 -1 -2 -2 -2 -2 -2 -2 -2 -2 -1 -1 -1 -2 -2
1 1 1 1 1 1 1 1 0 0 0 0 0 0 0 -0 -0 -0 -1 -1 -1 -1 -1 -1 -1 -1 -1 -1 -1 -2 -2 -2 -2 -2 -2 -2 -2 -3 -3 -2 -2 -2 -2
Wind_Speed
3 3 2 3 3 4 4 3 4 4 4 5 5 5 5 5 6 6 5 6 6 6 6 6 7 7 7 7 7 7 7 7 7 7 6 6 6 6 6 7 7 7 7
4 3 2 2 2 3 4 4 4 3 3 4 4 4 4 5 6 6 6 5 5 5 6 6 6 6 6 5 5 5 5 6 6 7 7 7 6 6 6 6 6 7 7
5 4 2 1 2 3 4 4 4 4 3 3 3 3 4 5 5 5 6 6 6 5 5 5 5 6 5 5 4 4 4 5 5 6 6 6 6 6 5 6 6 6 7
6 4 3 2 2 3 4 3 2 2 2 2 2 2 3 4 4 5 6 6 6 6 6 5 5 5 5 4 4 4 4 4 4 4 5 5 5 6 6 6 6 6 7
5 5 3 3 4 3 2 2 2 2 3 3 2 2 2 2 3 4 5 6 6 6 6 5 6 5 5 4 4 3 3 4 4 4 4 4 5 6 6 6 7 6 7
5 5 3 3 4 2 2 2 3 2 3 3 3 2 2 2 3 3 3 5 6 6 6 6 6 5 5 5 4 4 4 3 4 4 4 4 5 6 6 6 7 7 7
5 5 3 3 3 3 3 3 3 3 2 3 3 2 2 2 2 2 3 3 4 5 5 5 5 5 5 5 5 5 4 4 4 5 5 5 6 6 6 7 7 7 8
5 4 4 3 3 3 4 4 4 2 2 2 2 3 1 1 2 2 1 1 2 3 4 4 4 4 4 4 5 5 5 5 6 6 6 6 6 7 7 8 8 8 8
4 4 4 4 4 4 4 4 5 4 3 1 1 3 3 3 1 1 1 0 0 1 1 1 2 2 2 3 4 5 5 6 6 7 7 7 8 8 8 8 9 9 9
4 4 5 5 4 4 5 5 4 3 5 3 1 0 1 3 3 1 1 1 1 1 1 1 1 1 2 3 4 5 6 6 7 8 8 9 9 9 9 9 10 10 10
2 3 4 4 4 4 5 5 4 3 3 4 4 2 1 1 2 2 2 2 1 2 2 2 2 2 3 3 4 5 6 7 8 8 9 9 9 9 10 10 10 10 10
1 2 3 4 4 4 4 5 5 4 4 4 4 3 3 2 2 2 2 3 2 2 2 2 3 3 3 4 5 6 7 8 8 9 9 9 9 10 10 11 11 11 11
2 3 3 3 3 4 4 4 4 4 5 5 5 3 3 2 2 2 2 2 2 2 2 2 3 4 4 4 5 7 7 8 9 9 10 10 10 10 10 11 11 12 12
3 3 3 3 4 4 4 4 3 3 4 5 4 4 3 2 3 3 3 2 2 2 2 3 2 4 4 4 6 7 7 8 9 10 10 10 10 10 11 11 12 12 12
2 3 3 3 3 4 4 4 3 3 4 4 4 4 3 2 2 3 3 4 4 3 4 3 2 3 4 4 6 6 7 8 10 10 11 10 10 10 11 11 12 12 12
2 3 3 3 3 3 4 4 3 3 4 3 3 3 3 2 2 2 3 3 3 4 4 3 3 3 4 5 6 7 7 9 10 10 11 11 11 11 11 12 12 12 12
3 3 4 4 4 4 4 4 4 4 4 3 3 3 3 3 3 2 2 2 3 3 4 4 2 2 3 3 5 6 7 7 8 10 11 11 11 11 11 12 13 13 13
3 3 4 4 4 4 4 4 4 4 4 4 3 3 3 3 3 2 2 3 3 3 4 5 4 2 3 4 4 4 6 7 8 10 11 10 11 12 12 12 13 13 13
3 2 3 4 4 4 4 4 4 4 3 4 4 4 3 3 3 2 2 3 3 3 3 4 5 3 2 3 3 4 4 5 7 9 9 10 10 11 12 12 12 12 13
3 3 3 3 3 3 3 3 4 4 3 3 3 3 3 4 4 3 3 3 3 3 2 3 4 3 3 3 2 3 4 3 5 6 8 9 10 11 11 12 12 13 13
3 3 3 2 2 2 3 4 4 4 3 3 2 2 3 3 4 4 3 3 3 3 3 3 3 3 4 3 3 3 4 4 5 3 4 5 6 7 8 11 12 13 13
3 2 2 2 2 2 3 4 4 4 4 3 3 2 3 3 4 4 5 5 4 4 4 3 4 5 6 5 4 3 4 4 5 2 2 5 4 5 7 8 12 13 13
3 2 2 2 2 2 3 4 3 3 3 3 3 3 2 3 3 2 4 4 4 6 6 5 5 6 6 5 4 4 4 5 6 4 3 5 3 5 7 10 13 14 13
3 2 2 2 2 1 2 3 3 2 2 3 3 3 3 3 3 3 3 3 3 3 5 3 4 5 5 5 5 5 5 4 4 4 3 5 4 5 6 9 12 13 13
2 2 1 2 2 1 2 3 2 2 2 2 2 3 3 4 6 5 3 3 3 3 4 5 6 6 7 7 5 2 2 3 4 4 2 3 4 5 5 5 9 12 12
2 2 1 1 2 1 2 2 2 2 2 2 2 3 5 5 6 5 3 3 4 4 2 3 3 4 4 4 5 3 3 3 3 4 2 2 3 3 4 3 4 7 9
Wind_Direction
130 112 99 98 95 98 98 96 99 99 98 94 97 97 89 91 92 90 89 92 97 101 104 104 99 93 85 79 75 72 67 62 55 51 49 45 40 35 28 25 22 15 8
143 131 113 108 111 121 118 116 118 116 109 103 93 92 94 94 95 91 86 82 88 97 102 103 98 88 81 77 73 70 61 55 50 47 43 37 27 23 18 10 6 6 2
157 148 137 128 131 137 127 115 114 111 110 105 98 87 92 91 96 92 88 84 77 79 91 95 95 88 79 71 65 60 52 47 41 37 33 29 24 17 9 5 359 356 357
165 151 147 156 147 137 130 134 132 127 119 117 112 96 81 84 88 97 93 86 80 74 77 79 84 82 73 64 55 50 42 37 33 26 20 15 12 8 4 355 350 347 347
167 155 151 154 149 134 130 149 138 140 134 122 111 95 76 76 74 92 91 84 83 81 75 71 71 69 59 49 38 32 25 20 14 7 4 -0 355 352 351 352 350 342 340
164 154 145 150 147 144 146 140 132 119 133 134 112 79 56 60 70 76 84 82 81 82 78 70 62 56 49 34 18 9 5 1 355 352 350 343 338 337 338 341 342 341 334
161 152 148 146 149 162 160 143 132 126 112 124 102 71 32 48 65 60 74 81 79 81 80 72 63 53 38 25 16 4 355 348 340 334 333 330 326 324 324 327 328 330 332
165 162 154 161 160 155 149 149 139 136 135 144 134 121 78 4 15 33 45 94 86 82 73 60 64 56 35 20 3 355 346 337 329 324 320 317 316 315 317 316 318 321 322
166 164 165 162 164 166 170 170 163 156 163 180 141 140 150 197 249 314 285 125 122 98 62 58 48 33 19 4 349 343 341 333 323 316 313 311 309 308 308 310 311 313 316
167 171 167 165 167 167 173 180 176 173 165 172 173 63 142 143 156 205 281 271 250 239 241 268 313 323 332 339 331 328 330 325 319 312 307 306 305 305 305 305 306 308 310
167 171 167 165 172 173 176 178 177 176 180 174 168 162 140 98 130 161 224 259 281 252 235 231 242 264 289 303 312 314 318 314 310 307 305 303 302 303 303 304 304 305 306
196 182 171 170 175 180 185 184 182 180 185 176 171 165 171 170 173 169 201 231 250 264 257 237 226 240 268 286 298 308 312 311 307 304 304 303 303 303 302 301 302 303 304
214 215 186 179 182 187 184 175 175 183 182 177 179 174 178 188 168 171 175 217 258 275 267 247 230 235 259 276 290 304 306 304 303 302 302 301 302 301 300 299 299 300 301
207 196 182 176 176 172 170 164 167 179 173 174 174 171 175 184 170 177 178 184 263 271 248 247 239 228 246 266 284 301 302 299 299 300 299 298 297 296 295 295 295 296 297
183 169 167 163 155 156 157 154 161 168 163 167 172 175 178 185 180 182 181 184 195 246 256 238 233 228 252 272 282 291 291 291 296 297 296 296 295 292 292 293 293 293 294
167 163 165 156 149 148 149 148 152 158 153 160 167 169 183 189 178 181 187 199 201 219 254 245 238 245 258 279 286 289 285 291 295 294 293 294 294 293 292 293 293 292 292
164 168 168 160 154 153 154 153 156 155 154 158 165 174 197 198 189 190 185 201 210 209 247 276 256 249 245 259 290 288 284 284 289 289 289 290 292 292 290 289 289 289 290
160 166 162 156 158 157 159 160 162 156 163 171 181 182 196 197 197 197 194 207 222 220 223 263 276 263 257 256 267 278 288 290 289 286 285 286 290 292 290 289 289 289 290
147 151 147 153 160 161 164 168 165 162 170 181 186 194 200 189 206 214 212 216 231 239 224 240 269 272 268 268 275 280 281 289 291 288 283 287 290 291 291 291 291 293 292
150 153 145 155 158 157 164 165 162 162 166 179 186 196 202 201 210 214 223 220 224 228 220 235 262 274 275 268 260 276 291 290 292 295 286 290 293 295 293 293 293 293 292
133 130 127 133 144 156 170 165 164 166 167 172 188 203 211 218 228 233 239 224 216 225 226 242 261 279 278 273 265 263 279 296 291 283 288 294 298 296 294 292 291 290 289
120 121 134 149 156 171 174 177 174 170 172 180 195 212 223 234 241 252 260 258 243 237 237 245 260 264 269 266 267 269 281 294 290 277 276 289 286 282 285 285 288 291 291
125 130 146 152 168 183 182 185 185 172 180 194 204 215 235 243 264 245 257 265 263 264 260 248 247 256 260 255 252 265 264 268 273 277 288 287 283 281 284 286 292 293 292
136 145 153 163 163 189 197 199 196 179 185 207 212 216 225 235 238 241 234 241 247 257 264 256 239 249 251 248 240 252 261 274 277 272 261 277 287 283 291 290 291 292 294
129 137 153 152 158 200 207 196 187 164 192 227 230 227 231 234 244 251 236 237 260 272 285 281 279 280 283 283 275 269 266 276 286 281 255 257 281 294 291 284 289 294 294
134 134 125 143 167 196 210 195 190 169 196 233 247 242 247 249 251 245 230 223 245 267 279 304 309 307 299 285 283 263 240 255 276 282 252 247 281 306 302 281 286 295 296
Height
1519 1521 1522 1524 1525 1527 1528 1530 1531 1533 1534 1536 1537 1539 1540 1541 1542 1543 1544 1546 1546 1547 1548 1548 1548 1548 1548 1548 1549 1548 1548 1548 1547 1547 1547 1547 1546 1546 1546 1545 1545 1544 1543
1517 1518 1520 1522 1523 1525 1526 1528 1529 1531 1532 1534 1535 1537 1538 1540 1541 1542 1543 1544 1545 1546 1546 1547 1547 1547 1547 1547 1547 1547 1547 1547 1546 1546 1546 1545 1545 1544 1544 1544 1543 1542 1542
1514 1516 1518 1519 1521 1523 1524 1526 1527 1529 1530 1532 1533 1535 1536 1538 1539 1540 1541 1542 1543 1544 1545 1545 1545 1545 1545 1546 1546 1545 1545 1545 1545 1544 1544 1544 1543 1543 1542 1542 1541 1541 1540
1512 1513 1515 1517 1518 1520 1522 1523 1525 1526 1527 1529 1531 1532 1534 1536 1537 1538 1539 1540 1541 1542 1543 1543 1543 1543 1544 1544 1544 1544 1543 1543 1543 1543 1542 1542 1541 1541 1541 1540 1539 1539 1538
1509 1511 1512 1514 1516 1517 1519 1520 1522 1524 1525 1527 1528 1530 1532 1533 1535 1536 1537 1538 1539 1540 1540 1541 1541 1541 1541 1542 1542 1541 1541 1541 1541 1540 1540 1540 1539 1539 1538 1538 1537 1537 1536
1506 1508 1509 1511 1513 1515 1516 1518 1519 1521 1523 1524 1526 1527 1529 1531 1532 1534 1534 1536 1537 1537 1538 1539 1539 1539 1539 1539 1540 1539 1539 1538 1538 1538 1538 1537 1537 1537 1536 1535 1535 1534 1533
1503 1505 1506 1508 1510 1512 1513 1515 1517 1518 1520 1521 1523 1524 1526 1528 1529 1531 1532 1533 1534 1535 1536 1536 1536 1536 1537 1537 1537 1537 1536 1536 1536 1535 1535 1534 1534 1534 1533 1533 1532 1531 1531
1500 1502 1503 1505 1507 1509 1511 1512 1514 1515 1516 1519 1520 1521 1523 1526 1526 1528 1529 1530 1531 1532 1533 1533 1533 1533 1534 1534 1534 1534 1534 1533 1533 1532 1532 1531 1531 1531 1530 1530 1529 1528 1527
1497 1499 1500 1502 1504 1506 1507 1509 1510 1512 1513 1515 1517 1519 1520 1520 1522 1524 1525 1527 1528 1529 1529 1530 1530 1530 1530 1530 1530 1530 1530 1530 1529 1529 1529 1528 1528 1527 1527 1526 1526 1525 1524
1494 1496 1497 1499 1501 1502 1504 1505 1507 1509 1510 1512 1514 1515 1517 1517 1519 1520 1522 1523 1524 1525 1526 1527 1527 1527 1527 1527 1527 1527 1527 1526 1526 1525 1525 1524 1524 1523 1523 1522 1522 1521 1520
1491 1492 1494 1496 1497 1499 1501 1502 1503 1505 1507 1509 1510 1512 1513 1514 1515 1516 1517 1519 1520 1521 1522 1523 1523 1524 1524 1524 1523 1523 1523 1522 1522 1521 1521 1520 1519 1519 1519 1518 1517 1516 1516
1487 1489 1490 1492 1494 1495 1497 1498 1500 1502 1504 1506 1507 1509 1510 1511 1511 1513 1513 1514 1515 1516 1518 1518 1519 1520 1520 1520 1520 1519 1519 1518 1517 1517 1516 1515 1515 1514 1514 1513 1512 1512 1511
1483 1485 1487 1488 1490 1492 1493 1495 1496 1498 1500 1502 1504 1505 1507 1508 1509 1510 1511 1511 1511 1511 1513 1514 1514 1515 1516 1516 1515 1515 1514 1513 1513 1512 1511 1510 1509 1509 1508 1508 1507 1507 1506
1480 1482 1483 1484 1486 1488 1489 1491 1492 1494 1496 1498 1500 1502 1503 1505 1506 1507 1508 1508 1507 1507 1508 1509 1509 1510 1511 1511 1511 1510 1509 1509 1508 1507 1506 1505 1504 1504 1503 1502 1502 1501 1501
1477 1478 1480 1481 1482 1484 1486 1488 1489 1490 1492 1494 1496 1498 1500 1501 1502 1503 1504 1505 1506 1504 1503 1504 1504 1505 1506 1506 1506 1505 1504 1504 1503 1502 1501 1500 1499 1498 1497 1497 1496 1496 1495
1473 1475 1476 1478 1479 1481 1483 1484 1486 1487 1489 1491 1493 1494 1496 1497 1498 1499 1500 1501 1502 1502 1499 1499 1499 1500 1501 1501 1501 1500 1499 1499 1497 1497 1496 1494 1494 1493 1492 1491 1491 1490 1489
1470 1471 1473 1474 1476 1478 1479 1481 1482 1484 1485 1487 1489 1490 1492 1493 1494 1495 1496 1496 1497 1498 1496 1494 1495 1496 1496 1496 1496 1495 1494 1493 1492 1491 1490 1489 1488 1487 1487 1486 1485 1484 1484
1466 1468 1470 1471 1473 1475 1476 1477 1479 1480 1482 1483 1485 1486 1488 1489 1489 1491 1491 1492 1493 1493 1492 1490 1490 1491 1491 1491 1490 1490 1489 1488 1487 1486 1485 1484 1483 1482 1481 1480 1479 1479 1478
1464 1465 1467 1468 1470 1472 1473 1474 1476 1477 1479 1480 1482 1483 1484 1485 1485 1486 1487 1487 1488 1488 1488 1487 1485 1486 1486 1486 1485 1484 1484 1483 1481 1480 1479 1478 1477 1476 1475 1474 1473 1472 1471
1461 1462 1464 1465 1467 1469 1470 1471 1473 1474 1475 1477 1478 1479 1480 1481 1482 1482 1482 1483 1483 1484 1484 1483 1482 1481 1481 1481 1480 1479 1478 1477 1476 1475 1474 1473 1472 1471 1470 1468 1467 1466 1465
1458 1460 1461 1463 1464 1466 1467 1468 1470 1471 1472 1473 1475 1476 1477 1477 1478 1478 1479 1479 1479 1479 1479 1479 1478 1477 1476 1475 1475 1474 1473 1471 1470 1469 1467 1467 1466 1464 1463 1462 1461 1460 1459
1456 1457 1459 1460 1462 1463 1464 1466 1467 1468 1469 1470 1471 1472 1473 1474 1474 1474 1475 1475 1476 1476 1475 1474 1473 1472 1471 1471 1470 1469 1468 1466 1465 1464 1462 1461 1460 1459 1457 1456 1455 1454 1452
1453 1455 1457 1458 1459 1461 1462 1463 1464 1465 1466 1467 1468 1469 1469 1470 1470 1471 1471 1471 1471 1471 1472 1471 1469 1468 1467 1466 1466 1464 1463 1462 1460 1459 1458 1455 1455 1453 1452 1451 1449 1448 1447
1451 1453 1454 1456 1457 1458 1459 1460 1461 1462 1463 1464 1465 1465 1466 1466 1466 1467 1466 1467 1467 1467 1467 1466 1465 1464 1463 1462 1461 1460 1459 1457 1456 1455 1454 1450 1448 1448 1446 1445 1444 1443 1441
1449 1451 1452 1453 1454 1455 1457 1457 1459 1459 1460 1461 1462 1462 1462 1463 1463 1463 1463 1462 1462 1462 1463 1462 1461 1460 1459 1458 1457 1456 1454 1452 1450 1449 1449 1446 1444 1442 1440 1439 1439 1437 1436
1447 1448 1450 1451 1452 1453 1454 1455 1456 1456 1457 1458 1458 1459 1459 1459 1459 1459 1459 1459 1458 1458 1457 1456 1456 1455 1454 1453 1452 1451 1450 1449 1446 1445 1443 1442 1440 1438 1434 1433 1433 1431 1430